• en France
  • Liste des pays
  • À 7 jours
  • Température de l'eau
  • Carte satellitaire
  • Carte météo
  • Widgets météo
  • user-avatar
    Se connecter

    Météo par heure à Zinder

    Ce jour, 25 Septembre, Mardi

    Heure Température Précipitation Vent Pression Humidité
    00:00 +36°C° 0 mm 4 m/s 718 mmHg 18%
    01:00 +36°C° 0 mm 3 m/s 719 mmHg 20%
    02:00 +35°C° 0 mm 3 m/s 718 mmHg 26%
    03:00 +34°C° 0 mm 4 m/s 718 mmHg 33%
    04:00 +33°C° 0 mm 4 m/s 718 mmHg 39%
    05:00 +33°C° 0 mm 3 m/s 718 mmHg 42%
    06:00 +31°C° 0 mm 3 m/s 719 mmHg 46%
    07:00 +31°C° 0 mm 2 m/s 719 mmHg 51%
    08:00 +32°C° 0 mm 2 m/s 719 mmHg 46%
    09:00 +34°C° 0 mm 2 m/s 720 mmHg 42%
    10:00 +35°C° 0 mm 2 m/s 720 mmHg 38%
    11:00 +36°C° 0 mm 1 m/s 719 mmHg 33%
    12:00 +37°C° 0 mm 1 m/s 719 mmHg 28%
    13:00 +39°C° 0 mm 1 m/s 719 mmHg 24%
    14:00 +40°C° 0 mm 2 m/s 718 mmHg 22%
    15:00 +40°C° 0 mm 3 m/s 717 mmHg 20%
    16:00 +42°C° 0 mm 4 m/s 717 mmHg 19%
    17:00 +40°C° 0 mm 3 m/s 717 mmHg 19%
    18:00 +40°C° 0 mm 3 m/s 717 mmHg 20%
    19:00 +39°C° 0 mm 2 m/s 717 mmHg 20%
    20:00 +39°C° 0 mm 2 m/s 717 mmHg 21%
    21:00 +39°C° 0 mm 2 m/s 717 mmHg 22%
    22:00 +37°C° 0 mm 1 m/s 717 mmHg 22%
    23:00 +38°C° 0 mm 2 m/s 717 mmHg 23%

    Demain, 26 Septembre, Mercredi

    Heure Température Précipitation Vent Pression Humidité
    00:00 +37°C° 0 mm 2 m/s 717 mmHg 24%
    01:00 +37°C° 0 mm 2 m/s 717 mmHg 25%
    02:00 +36°C° 0 mm 2 m/s 717 mmHg 28%
    03:00 +35°C° 0 mm 3 m/s 717 mmHg 32%
    04:00 +34°C° 0 mm 3 m/s 716 mmHg 35%
    05:00 +33°C° 0 mm 3 m/s 717 mmHg 39%
    06:00 +33°C° 0 mm 3 m/s 717 mmHg 42%
    07:00 +31°C° 0 mm 3 m/s 717 mmHg 45%
    08:00 +34°C° 0 mm 3 m/s 718 mmHg 41%
    09:00 +35°C° 0 mm 3 m/s 718 mmHg 37%
    10:00 +37°C° 0 mm 3 m/s 719 mmHg 33%
    11:00 +38°C° 0 mm 3 m/s 718 mmHg 28%
    12:00 +40°C° 0 mm 2 m/s 718 mmHg 24%
    13:00 +41°C° 0 mm 1 m/s 717 mmHg 19%
    14:00 +41°C° 0 mm 2 m/s 717 mmHg 17%
    15:00 +43°C° 0 mm 3 m/s 716 mmHg 15%
    16:00 +43°C° 0 mm 3 m/s 715 mmHg 14%
    17:00 +42°C° 0 mm 3 m/s 715 mmHg 14%
    18:00 +40°C° 0 mm 2 m/s 715 mmHg 15%
    19:00 +39°C° 0 mm 1 m/s 715 mmHg 16%
    20:00 +39°C° 0 mm 2 m/s 716 mmHg 16%
    21:00 +38°C° 0 mm 2 m/s 716 mmHg 17%
    22:00 +37°C° 0 mm 2 m/s 717 mmHg 17%
    23:00 +37°C° 0 mm 2 m/s 717 mmHg 17%

    Après-demain, 27 Septembre, Jeudi

    Heure Température Précipitation Vent Pression Humidité
    00:00 +36°C° 0 mm 2 m/s 716 mmHg 18%
    01:00 +35°C° 0 mm 2 m/s 716 mmHg 18%
    02:00 +35°C° 0 mm 2 m/s 716 mmHg 19%
    03:00 +34°C° 0 mm 2 m/s 716 mmHg 21%
    04:00 +32°C° 0 mm 2 m/s 715 mmHg 22%
    05:00 +33°C° 0 mm 3 m/s 716 mmHg 31%
    06:00 +32°C° 0 mm 4 m/s 716 mmHg 40%
    07:00 +30°C° 0 mm 4 m/s 717 mmHg 49%
    08:00 +33°C° 0 mm 4 m/s 717 mmHg 44%
    09:00 +35°C° 0 mm 4 m/s 718 mmHg 39%
    10:00 +37°C° 0 mm 4 m/s 718 mmHg 34%
    11:00 +38°C° 0 mm 3 m/s 718 mmHg 29%
    12:00 +40°C° 0 mm 2 m/s 717 mmHg 24%
    13:00 +41°C° 0 mm 1 m/s 717 mmHg 19%
    14:00 +41°C° 0 mm 2 m/s 716 mmHg 17%
    15:00 +42°C° 0 mm 2 m/s 716 mmHg 16%
    16:00 +42°C° 0 mm 2 m/s 715 mmHg 14%
    17:00 +41°C° 0 mm 2 m/s 715 mmHg 15%
    18:00 +41°C° 0 mm 1 m/s 715 mmHg 16%
    19:00 +40°C° 0 mm 1 m/s 715 mmHg 17%
    20:00 +39°C° 0 mm 1 m/s 716 mmHg 19%
    21:00 +38°C° 0 mm 2 m/s 716 mmHg 21%
    22:00 +37°C° 0 mm 2 m/s 716 mmHg 22%
    23:00 +36°C° 0 mm 2 m/s 716 mmHg 25%

    28 Septembre, Vendredi

    Heure Température Précipitation Vent Pression Humidité
    00:00 +36°C° 0 mm 3 m/s 716 mmHg 28%
    01:00 +35°C° 0 mm 3 m/s 716 mmHg 31%
    02:00 +34°C° 0 mm 3 m/s 716 mmHg 35%
    03:00 +33°C° 0 mm 3 m/s 715 mmHg 38%
    04:00 +33°C° 0 mm 3 m/s 715 mmHg 42%
    05:00 +32°C° 0 mm 4 m/s 716 mmHg 44%
    06:00 +32°C° 0 mm 4 m/s 716 mmHg 47%
    07:00 +32°C° 0 mm 4 m/s 717 mmHg 49%
    08:00 +33°C° 0 mm 4 m/s 718 mmHg 47%
    09:00 +34°C° 0 mm 5 m/s 718 mmHg 45%
    10:00 +35°C° 0 mm 5 m/s 719 mmHg 43%
    11:00 +37°C° 0 mm 5 m/s 718 mmHg 40%
    12:00 +38°C° 0 mm 4 m/s 718 mmHg 36%
    13:00 +40°C° 0 mm 4 m/s 717 mmHg 32%
    14:00 +39°C° 0 mm 3 m/s 716 mmHg 30%
    15:00 +40°C° 0 mm 2 m/s 716 mmHg 27%
    16:00 +40°C° 0 mm 2 m/s 715 mmHg 25%
    17:00 +40°C° 0 mm 2 m/s 716 mmHg 25%
    18:00 +40°C° 0 mm 2 m/s 716 mmHg 25%
    19:00 +39°C° 0 mm 1 m/s 716 mmHg 25%
    20:00 +38°C° 0 mm 2 m/s 716 mmHg 28%
    21:00 +38°C° 0 mm 2 m/s 716 mmHg 30%
    22:00 +37°C° 0 mm 2 m/s 717 mmHg 32%
    23:00 +36°C° 0.1 mm 3 m/s 717 mmHg 37%

    29 Septembre, Samedi

    Heure Température Précipitation Vent Pression Humidité
    00:00 +35°C° 0.1 mm 3 m/s 716 mmHg 42%
    01:00 +35°C° 0.1 mm 4 m/s 716 mmHg 46%
    02:00 +34°C° 0.5 mm 4 m/s 716 mmHg 50%
    03:00 +33°C° 0.5 mm 5 m/s 716 mmHg 54%
    04:00 +33°C° 0.5 mm 5 m/s 716 mmHg 57%
    05:00 +33°C° 0.6 mm 5 m/s 717 mmHg 57%
    06:00 +32°C° 0.6 mm 4 m/s 717 mmHg 56%
    07:00 +32°C° 0.6 mm 4 m/s 718 mmHg 56%
    08:00 +33°C° 0 mm 4 m/s 718 mmHg 52%
    09:00 +34°C° 0 mm 4 m/s 719 mmHg 48%
    10:00 +35°C° 0 mm 3 m/s 719 mmHg 45%
    11:00 +36°C° 0 mm 3 m/s 718 mmHg 41%
    12:00 +37°C° 0 mm 2 m/s 718 mmHg 37%
    13:00 +37°C° 0 mm 1 m/s 717 mmHg 33%
    14:00 +39°C° 0 mm 1 m/s 716 mmHg 31%
    15:00 +39°C° 0 mm 1 m/s 716 mmHg 29%
    16:00 +39°C° 0 mm 1 m/s 716 mmHg 28%
    17:00 +39°C° 0 mm 1 m/s 716 mmHg 28%
    18:00 +39°C° 0 mm 1 m/s 716 mmHg 29%
    19:00 +39°C° 0 mm 1 m/s 716 mmHg 29%
    20:00 +37°C° 0 mm 1 m/s 717 mmHg 31%
    21:00 +37°C° 0 mm 2 m/s 717 mmHg 33%
    22:00 +37°C° 0 mm 2 m/s 717 mmHg 35%
    23:00 +36°C° 0.4 mm 2 m/s 717 mmHg 37%

    30 Septembre, Dimanche

    Heure Température Précipitation Vent Pression Humidité
    00:00 +36°C° 0.4 mm 3 m/s 717 mmHg 39%
    01:00 +35°C° 0.4 mm 3 m/s 716 mmHg 40%
    02:00 +35°C° 0 mm 3 m/s 716 mmHg 42%
    03:00 +34°C° 0 mm 4 m/s 716 mmHg 44%
    04:00 +34°C° 0 mm 4 m/s 716 mmHg 45%
    05:00 +33°C° 0 mm 4 m/s 716 mmHg 46%
    06:00 +33°C° 0 mm 4 m/s 716 mmHg 47%
    07:00 +33°C° 0 mm 4 m/s 717 mmHg 48%
    08:00 +34°C° 0 mm 3 m/s 717 mmHg 43%
    09:00 +36°C° 0 mm 3 m/s 718 mmHg 37%
    10:00 +37°C° 0 mm 3 m/s 718 mmHg 32%
    11:00 +38°C° 0 mm 3 m/s 718 mmHg 29%
    12:00 +41°C° 0 mm 4 m/s 717 mmHg 26%
    13:00 +42°C° 0 mm 4 m/s 717 mmHg 23%
    14:00 +41°C° 0.1 mm 4 m/s 716 mmHg 23%
    15:00 +41°C° 0.1 mm 4 m/s 716 mmHg 23%
    16:00 +40°C° 0.1 mm 4 m/s 715 mmHg 23%
    17:00 +38°C° 0 mm 3 m/s 715 mmHg 24%
    18:00 +38°C° 0 mm 3 m/s 716 mmHg 25%
    19:00 +37°C° 0 mm 2 m/s 716 mmHg 27%
    20:00 +36°C° 0 mm 3 m/s 716 mmHg 30%
    21:00 +36°C° 0 mm 4 m/s 716 mmHg 32%
    22:00 +35°C° 0 mm 5 m/s 716 mmHg 35%
    23:00 +34°C° 0 mm 4 m/s 716 mmHg 36%
    Voir plus